SCP
0 0 0 0 0 0 0 0 0 0 0 0 0 0 0 0 0 0 0 0 0 0 0 0 0 0 0 0 0 0 0 0 0 0 0 0 0 0 0 0 0 0 0
0 0 0 0 0 0 0 0 0 0 0 0 0 0 0 0 0 0 0 0 0 0 0 0 0 0 0 0 0 0 0 0 0 0 0 0 0 0 0 0 0 0 0
0 0 0 0 0 0 0 0 0 0 0 0 0 0 0 0 0 0 0 0 0 0 0 0 0 0 0 0 0 0 0 0 0 0 0 0 0 0 0 0 0 0 0
0 0 0 0 0 0 0 0 0 0 0 0 0 0 0 0 0 0 0 0 0 0 0 0 0 0 0 0 0 0 0 0 0 0 0 0 0 0 0 0 0 0 0
0 0 0 0 0 0 0 0 0 0 0 0 0 0 0 0 0 0 0 0 0 0 0 0 0 0 0 0 0 0 0 0 0 0 0 0 0 0 0 0 0 0 0
0 0 0 0 0 0 0 0 0 0 0 0 0 0 0 0 0 0 0 0 0 0 0 0 0 0 0 0 0 0 0 0 0 0 0 0 0 0 0 0 0 0 0
0 0 0 0 0 0 0 0 0 0 0 0 0 0 0 0 0 0 0 0 0 0 0 0 0 0 0 0 0 0 0 0 0 0 0 0 0 0 0 0 0 0 0
0 0 0 0 0 0 0 0 0 0 0 0 0 0 0 0 0 0 0 0 0 0 0 0 0 0 0 0 0 0 0 0 0 0 0 0 0 0 0 0 0 0 0
0 0 0 0 0 0 0 0 0 0 0 0 0 0 0 0 0 0 0 0 0 0 0 0 0 0 0 0 0 0 0 0 0 0 0 0 0 0 0 0 0 0 0
0 0 0 0 0 0 0 0 0 0 0 0 0 0 0 0 0 0 0 0 0 0 0 0 0 0 0 0 0 0 0 0 0 0 0 0 0 0 0 0 0 0 0
0 0 0 0 0 0 0 0 0 0 0 0 0 0 0 0 0 0 0 0 0 0 0 0 0 0 0 0 0 0 0 0 0 0 0 0 0 0 0 0 0 0 0
0 0 0 0 0 0 0 0 0 0 0 0 0 0 0 0 0 0 0 0 0 0 0 0 0 0 0 0 0 0 0 0 0 0 0 0 0 0 0 0 0 0 0
0 0 0 0 0 0 0 0 0 0 0 0 0 0 0 0 0 0 0 0 0 0 0 0 0 0 0 0 0 0 0 0 0 0 0 0 0 0 0 0 0 0 0
0 0 0 0 0 0 0 0 0 0 0 0 0 0 0 0 0 0 0 0 0 0 0 0 0 0 0 0 0 0 0 0 0 0 0 0 0 0 0 0 0 0 0
0 0 0 0 0 0 0 0 0 0 0 0 0 0 0 0 0 0 0 0 0 0 0 0 0 0 0 0 0 0 0 0 0 0 0 0 0 0 0 0 0 0 0
0 0 0 0 0 0 0 0 0 0 0 0 0 0 0 0 0 0 0 0 0 0 0 0 0 0 0 0 0 0 0 0 0 0 0 0 0 0 0 0 0 0 0
0 0 0 0 0 0 0 0 0 0 0 0 0 0 0 0 0 0 0 0 0 0 0 0 0 0 0 0 0 0 0 0 0 0 0 0 0 0 0 0 0 0 0
0 0 0 0 0 0 0 0 0 0 0 0 0 0 0 0 0 0 0 0 0 0 0 0 0 0 0 0 0 0 0 0 0 0 0 0 0 0 0 0 0 0 0
0 0 0 0 0 0 0 0 0 0 0 0 0 0 0 0 0 0 0 0 0 0 0 0 0 0 0 0 0 0 0 0 0 0 0 0 0 0 0 0 0 0 0
0 0 0 0 0 0 0 0 0 0 0 0 0 0 0 0 0 0 0 0 0 0 0 0 0 0 0 0 0 0 0 0 0 0 0 0 0 0 0 0 0 0 0
0 0 0 0 0 0 0 0 0 0 0 0 0 0 0 0 0 0 0 0 0 0 0 0 0 0 0 0 0 0 0 0 0 0 0 0 0 0 0 0 0 0 0
0 0 0 0 0 0 0 0 0 0 0 0 0 0 0 0 0 0 0 0 0 0 0 0 0 0 0 0 0 0 0 0 0 0 0 0 0 0 0 0 0 0 0
0 0 0 0 0 0 0 0 0 0 0 0 0 0 0 0 0 0 0 0 0 0 0 0 0 0 0 0 0 0 0 0 0 0 0 0 0 0 0 0 0 0 0
0 0 0 0 0 0 0 0 0 0 0 0 0 0 0 0 0 0 0 0 0 0 0 0 0 0 0 0 0 0 0 0 0 0 0 0 0 0 0 0 0 0 0
0 0 0 0 0 0 0 0 0 0 0 0 0 0 0 0 0 0 0 0 0 0 0 0 0 0 0 0 0 0 0 0 0 0 0 0 0 0 0 0 0 0 0
0 0 0 0 0 0 0 0 0 0 0 0 0 0 0 0 0 0 0 0 0 0 0 0 0 0 0 0 0 0 0 0 0 0 0 0 0 0 0 0 0 0 0
Wind_Speed
2 1 1 1 1 1 2 2 2 2 2 2 2 2 2 2 2 1 1 3 4 6 7 7 8 9 8 7 7 7 7 7 6 7 7 6 7 7 7 7 7 6 6
2 2 2 2 1 2 2 2 3 3 2 2 2 2 2 2 2 2 1 2 3 4 6 7 8 8 8 7 7 6 7 7 6 6 6 6 6 7 7 6 5 5 4
3 2 2 2 2 2 2 2 2 2 2 2 2 2 2 2 2 2 2 1 2 2 4 6 7 7 7 7 7 6 6 6 6 6 6 6 5 6 6 6 5 4 4
3 3 2 2 2 2 2 2 2 2 2 2 1 1 1 1 2 2 2 2 2 1 2 4 5 6 6 6 7 6 6 6 6 6 5 5 5 4 5 5 4 4 3
3 3 2 2 2 2 2 3 2 3 3 2 2 1 1 1 1 2 2 2 2 2 2 3 3 3 4 5 6 6 6 6 6 5 5 5 5 4 4 5 5 4 3
3 3 2 2 3 2 2 2 3 2 2 3 3 2 2 1 1 1 2 1 1 2 2 2 1 1 2 3 5 6 6 6 6 5 5 5 5 4 4 5 4 4 4
3 3 3 3 3 3 3 4 3 3 2 2 3 2 2 2 1 0 1 1 1 1 2 2 1 1 0 2 3 5 6 6 6 6 6 5 5 5 4 5 5 4 4
3 3 4 3 3 3 4 4 4 2 1 2 3 2 1 1 1 1 1 1 1 1 1 1 2 2 1 1 1 3 5 6 6 6 6 6 6 5 5 5 5 4 4
3 3 4 4 4 4 4 5 5 4 3 2 1 3 3 3 1 1 1 0 1 1 1 1 1 2 2 1 1 2 4 5 6 7 6 6 6 6 5 5 5 5 4
2 3 4 4 4 3 4 5 4 3 5 4 1 1 1 3 2 0 1 1 1 2 2 2 2 2 2 2 2 3 3 5 6 7 7 6 6 6 5 5 5 6 5
2 2 3 3 4 3 4 4 4 4 4 4 3 2 2 1 1 2 2 2 1 2 2 2 2 2 2 2 2 3 4 6 8 8 7 7 7 6 6 5 6 6 6
1 2 2 3 3 3 4 4 4 5 4 4 3 2 3 3 2 2 2 2 2 2 2 1 2 2 2 2 3 4 5 6 8 8 8 7 6 6 6 6 7 6 7
1 2 2 3 3 3 4 4 4 4 5 5 4 3 3 3 3 2 2 1 1 2 1 1 2 2 2 2 2 3 4 5 6 8 8 8 6 5 6 6 7 7 8
2 3 3 3 3 4 3 3 3 4 4 4 4 4 3 2 3 3 3 3 1 2 2 3 2 3 2 2 3 3 2 4 5 7 7 7 5 4 5 5 6 7 7
2 3 3 3 3 3 3 3 3 3 3 4 4 4 3 2 2 2 2 3 4 3 4 4 2 2 2 2 3 2 2 4 5 6 6 5 5 5 5 5 5 6 7
2 2 2 3 3 2 3 3 2 3 4 4 3 4 3 3 2 2 2 2 3 3 4 3 3 2 2 2 3 2 3 4 5 5 6 6 5 5 5 5 5 6 7
2 2 2 3 3 3 3 3 3 4 5 4 4 4 4 3 3 3 2 2 2 3 3 2 1 1 1 2 1 1 2 2 2 4 5 5 5 5 5 5 5 6 6
2 3 3 3 3 3 3 4 4 4 5 5 5 5 5 3 4 3 3 3 3 3 4 3 2 1 2 2 2 1 1 2 2 4 5 5 5 5 5 5 6 6 6
2 3 3 3 3 3 4 4 4 4 5 5 5 5 5 5 4 3 3 3 3 3 2 3 3 1 1 1 1 1 1 2 2 3 4 5 5 5 6 6 6 6 6
2 3 3 3 4 4 4 4 4 4 4 4 4 5 5 5 5 5 4 4 3 3 3 3 2 2 1 1 1 1 2 1 2 2 3 4 4 5 6 6 6 6 6
3 3 3 3 3 3 3 4 4 4 4 4 4 4 4 5 6 5 4 4 4 3 3 3 3 2 2 2 2 2 2 1 2 2 1 2 2 2 3 5 5 6 6
2 2 3 3 3 3 4 5 4 3 4 4 4 3 3 4 4 5 6 6 6 5 5 4 3 4 4 3 2 2 2 1 3 1 1 2 1 3 3 3 5 7 7
2 2 3 3 3 3 4 4 4 3 3 4 4 3 2 2 3 2 3 2 4 5 6 5 5 5 4 4 4 3 3 3 3 2 1 3 1 3 3 3 7 7 6
2 2 2 2 3 3 4 4 4 2 2 2 3 3 3 2 2 2 2 1 1 1 3 3 4 4 3 3 4 4 3 1 1 1 1 2 2 2 2 3 6 6 5
2 2 2 2 2 3 3 3 3 2 1 1 1 2 3 3 3 3 3 2 1 1 1 1 2 3 4 5 4 2 2 2 2 2 1 1 1 1 2 2 3 3 2
2 1 1 1 1 2 2 3 3 2 2 1 1 0 2 3 3 4 3 3 2 1 0 1 1 1 0 1 3 3 4 3 2 2 2 2 1 1 2 2 1 1 1
Wind_Direction
164 168 171 163 165 155 156 156 150 144 146 143 141 139 139 140 138 135 141 151 162 170 167 164 159 155 154 153 151 150 149 147 146 143 137 137 137 131 123 118 114 109 103
165 169 174 171 173 169 166 163 164 155 159 153 144 147 154 151 146 142 133 141 137 148 164 166 161 158 159 157 154 151 153 154 156 150 148 143 144 140 135 129 125 119 112
169 168 176 180 184 170 155 145 145 140 142 139 137 142 142 150 144 141 132 120 118 134 157 169 162 163 165 166 162 154 153 151 152 155 150 152 143 150 145 140 138 137 131
170 166 174 186 181 160 150 152 152 150 149 144 140 143 130 139 139 139 122 116 113 115 151 153 155 163 168 172 173 170 167 164 162 157 152 154 150 156 158 156 156 156 153
178 168 176 183 168 156 155 161 156 157 153 139 125 104 97 105 116 122 127 132 130 118 114 120 135 150 170 178 185 182 178 176 174 171 170 167 169 165 174 172 173 174 174
180 171 173 174 164 155 153 146 145 143 141 135 110 78 55 61 92 124 141 135 133 128 116 109 107 134 160 188 200 192 183 184 183 184 188 186 187 185 193 186 182 190 193
182 175 173 173 172 168 162 149 138 138 123 121 102 76 32 39 64 67 117 124 133 136 131 130 126 121 184 214 207 199 191 187 189 194 198 199 200 198 203 199 192 195 202
186 180 172 177 175 166 157 153 146 139 143 142 128 126 100 357 357 3 56 127 145 133 157 167 165 171 181 206 234 218 209 201 201 203 208 207 208 206 211 208 202 208 216
191 185 179 177 179 173 174 172 170 160 167 182 150 149 155 193 269 331 314 204 163 196 201 200 205 205 200 196 213 235 235 224 213 215 218 215 213 211 215 220 221 222 226
187 189 181 180 177 176 177 179 181 174 167 174 181 176 146 153 155 187 317 313 246 225 218 213 213 227 218 211 217 224 235 237 224 226 225 220 223 223 224 228 233 232 235
189 184 179 179 179 182 184 182 179 180 179 178 173 165 133 108 142 156 221 258 267 245 226 219 211 217 225 217 215 225 233 234 228 229 231 230 229 232 232 236 238 240 241
201 192 184 183 185 183 189 191 186 184 186 181 183 181 168 168 182 171 190 229 247 264 254 238 226 219 219 214 226 234 234 235 235 234 235 236 237 243 245 246 244 247 246
218 208 197 195 192 191 192 189 187 189 190 187 193 203 200 189 172 166 165 200 243 273 266 257 237 228 218 209 222 236 240 239 239 239 237 238 243 250 258 256 254 255 251
213 205 200 200 195 190 188 184 192 197 193 195 203 201 205 205 181 175 174 169 198 273 267 251 244 222 218 217 229 232 240 247 247 246 245 244 247 255 263 266 264 264 264
212 202 202 200 196 189 185 180 193 203 197 202 205 204 209 213 199 188 178 177 175 208 244 242 237 226 214 218 232 224 236 244 250 254 253 250 248 253 263 268 269 268 269
205 198 209 206 203 197 192 188 194 202 205 209 202 199 209 211 202 189 188 197 191 191 225 234 235 248 217 232 234 224 230 246 245 247 246 243 244 245 255 266 275 276 271
199 212 216 208 204 204 197 194 201 196 205 211 209 204 212 208 202 194 191 196 194 180 212 254 259 258 217 221 248 242 244 241 248 256 255 245 246 248 252 261 271 274 272
203 214 213 212 211 209 201 203 207 204 204 208 211 210 215 208 208 201 199 206 203 192 191 219 237 232 233 219 217 236 266 271 259 263 263 260 256 257 257 259 262 268 274
207 212 211 217 216 213 210 212 207 210 213 214 211 211 214 205 214 209 207 210 203 198 192 195 216 221 239 225 219 264 265 273 270 269 265 263 263 266 265 266 265 264 268
210 216 221 225 222 217 218 219 213 214 217 216 212 211 213 209 213 211 211 210 199 190 187 189 200 207 217 214 177 230 277 274 285 292 269 267 268 271 268 272 268 263 263
227 221 221 229 225 217 220 217 216 212 209 211 215 215 215 218 223 219 213 205 195 189 186 193 198 195 205 190 206 206 242 274 288 264 267 276 276 271 269 269 268 258 263
236 224 219 219 225 231 233 223 217 209 205 206 211 215 214 215 225 228 225 217 204 196 197 201 206 207 218 210 199 198 207 230 273 240 209 278 256 264 267 258 267 264 263
230 227 224 217 221 232 229 219 215 206 206 209 205 201 213 221 219 206 218 224 223 221 216 209 208 211 207 204 189 201 213 224 243 230 205 273 271 268 271 272 275 266 267
227 232 230 223 223 234 227 217 204 198 195 203 203 198 194 196 201 176 162 153 208 245 233 219 213 214 211 199 195 200 202 204 263 279 195 255 272 269 292 291 284 266 271
228 235 227 218 223 233 218 200 184 169 162 172 190 191 187 191 197 178 162 160 189 297 325 250 235 224 217 212 194 157 163 180 261 268 215 211 261 295 301 294 299 293 291
210 214 217 212 213 225 205 183 161 140 141 129 91 143 201 194 191 184 177 173 194 230 177 51 40 24 316 207 208 195 184 192 223 255 214 184 223 307 304 302 306 305 314